Location: Bédeille
(43.0872°N, 1.1041°E)
Time: 03:25:47
(UTC+00:00)

Cosmos 1844 Rocket - Pass Details

Date: 03 February 2023
Orbit: 825 x 843 km, 71.0° (Epoch: 27 March)

Event Time Altitude Azimuth Distance (km) Brightness Sun altitude
Rises 17:41:49 0° 341° (NNW) 3,374 5.9 -6.3°
Reaches altitude 10° 17:44:29 10° 351° (N) 2,436 5.0 -6.7°
Maximum altitude 17:49:34 35° 56° (NE) 1,310 3.2 -7.6°
Drops below altitude 10° 17:54:37 10° 122° (ESE) 2,424 4.7 -8.5°
Sets 17:57:15 0° 131° (SE) 3,354 5.5 -9.0°
